Location: Goettingen
(51.5300°N, 9.9433°E)
Time: 23:13:03
(UTC+01:00)

ISS - Pass Details

Date: 23 March 2017
Orbit: 399 x 409 km, 51.6° (Epoch: 23 March)

Event Time Altitude Azimuth Distance (km) Brightness Sun altitude
Exits shadow 04:30:04 12° 173° (S) 1,337 -1.4 -16.8°
Drops below altitude 10° 04:30:31 10° 167° (SSE) 1,469 -1.1 -16.7°
Sets 04:32:57 0° 150° (SSE) 2,326 0.1 -16.4°
